Total_Precipitation_Accumulation
10.57 7.27 6.42 5.67 6.33 4.11 1.79 1.64 1.82 2.19 2.31 2.33 2.63 2.99 2.05 1.53 0.97 0.74 0.73 0.72 0.38 0.34 0.29 0.40 0.58 0.54 0.23 0.26 0.29 0.32 0.39 1.05
6.96 5.70 4.95 4.65 4.82 5.35 3.72 2.50 2.16 1.89 1.86 1.82 1.74 2.23 2.13 1.50 1.02 0.76 0.83 0.72 0.50 0.40 0.50 0.63 0.58 0.55 0.55 0.47 0.36 0.28 0.15 0.28
3.69 2.64 1.87 2.18 2.32 2.73 3.35 3.29 2.69 2.72 2.92 2.12 1.68 1.56 2.09 1.76 1.28 0.98 1.04 0.88 0.70 0.56 0.65 0.66 0.54 0.45 0.32 0.29 0.24 0.24 0.17 0.24
1.37 0.91 0.54 0.58 0.72 0.85 1.41 2.16 2.53 2.24 3.57 2.48 2.13 1.26 1.42 1.36 1.55 1.26 1.11 1.17 0.77 0.81 0.65 0.50 0.37 0.25 0.17 0.13 0.10 0.22 0.21 0.28
0.79 0.59 0.40 0.47 0.34 0.41 0.61 1.22 2.03 2.29 2.50 2.34 2.37 1.46 1.60 1.39 1.61 1.26 1.10 1.55 0.99 0.94 0.68 0.47 0.31 0.31 0.29 0.16 0.22 0.20 0.22 0.19
0.35 0.41 0.50 0.85 0.66 0.41 0.45 0.89 1.68 1.83 1.47 1.34 1.77 1.35 1.43 1.49 1.25 1.20 0.93 1.41 1.05 0.85 0.62 0.52 0.53 0.52 0.41 0.29 0.31 0.24 0.24 0.22
0.40 0.21 0.33 0.41 0.50 0.65 0.61 0.74 1.06 1.33 1.17 0.55 1.21 1.17 1.10 1.50 1.32 1.37 0.98 1.48 0.95 0.60 0.58 0.53 0.61 0.68 0.60 0.51 0.28 0.37 0.22 0.27
0.48 0.44 0.39 0.39 0.45 0.43 0.59 0.81 1.14 1.08 1.17 0.58 0.52 0.86 1.15 1.60 1.54 1.47 1.14 1.23 1.10 0.86 0.53 0.55 0.52 0.71 0.57 0.50 0.37 0.37 0.18 0.18
0.62 1.03 0.52 0.38 0.40 0.51 0.51 0.62 0.97 1.11 1.22 0.99 0.62 0.59 0.86 1.30 1.57 1.43 1.35 1.27 1.09 1.11 0.94 0.69 0.66 0.93 0.65 0.56 0.44 0.45 0.25 0.12
0.67 1.29 0.95 0.60 0.48 0.72 0.70 0.90 1.11 1.33 1.58 1.42 0.99 0.94 1.12 1.36 1.55 1.88 2.03 2.14 1.78 1.73 1.72 1.18 0.78 0.92 0.94 0.68 0.59 0.47 0.43 0.13
0.50 0.84 1.09 1.05 1.02 1.12 1.06 1.06 1.29 1.45 1.59 1.78 1.71 1.89 2.13 1.99 1.98 2.34 2.67 2.47 2.21 1.87 1.48 1.25 0.88 0.98 1.17 0.99 0.84 0.59 0.57 0.47
0.59 0.75 1.25 1.74 1.19 0.84 1.04 1.36 1.27 1.28 1.29 1.60 1.72 1.56 1.86 2.11 2.30 1.92 2.10 2.25 2.17 2.07 1.97 1.82 1.58 1.36 1.48 1.56 1.21 1.04 0.75 0.67
0.65 1.02 1.03 0.77 0.67 0.70 0.93 1.08 1.22 1.33 1.18 1.40 1.83 1.81 1.84 2.31 2.54 2.75 2.42 1.90 2.08 2.11 2.15 2.02 1.91 1.64 1.94 2.02 1.62 1.08 0.90 0.72
0.34 0.23 0.33 0.41 0.51 0.66 0.84 0.96 1.22 1.29 1.40 1.30 1.58 1.65 1.90 1.90 2.09 2.38 2.50 2.02 1.47 1.30 1.66 2.20 2.41 2.27 2.26 2.14 1.90 1.64 1.20 0.96
0.14 0.25 0.45 0.42 0.44 0.61 0.83 1.20 1.47 1.39 1.40 1.17 1.17 1.45 1.74 2.00 2.20 2.13 2.03 1.80 1.57 1.56 1.80 2.21 2.10 2.16 2.08 2.27 2.10 1.67 1.25 1.12
0.22 0.27 0.32 0.27 0.40 0.63 0.65 0.71 0.78 0.66 0.63 0.73 0.77 1.18 1.77 2.31 2.61 2.38 2.55 2.79 2.10 1.68 1.36 1.72 2.21 2.41 2.80 2.31 1.53 1.28 1.17 1.27
0.15 0.27 0.33 0.26 0.39 0.75 0.85 0.84 0.63 0.54 0.55 0.69 0.82 1.03 1.42 1.88 2.39 2.62 2.59 2.58 2.46 2.22 1.78 1.64 1.77 1.92 2.02 2.13 2.25 1.90 1.56 1.19
0.16 0.18 0.32 0.34 0.35 0.60 1.04 1.46 1.72 1.79 1.48 1.07 0.85 1.03 1.31 1.72 2.06 2.39 3.04 3.09 2.91 2.38 2.27 1.98 1.64 1.75 1.91 1.89 1.55 1.43 1.53 1.56
0.27 0.19 0.20 0.24 0.28 0.29 0.45 0.76 1.11 1.60 2.26 3.04 2.92 2.37 2.10 2.30 2.52 2.45 2.67 3.02 3.68 3.16 2.95 2.76 2.58 2.10 1.96 1.79 1.65 1.44 1.21 1.35
0.39 0.37 0.36 0.23 0.24 0.34 0.49 0.59 0.75 1.09 1.24 1.58 2.41 3.18 2.85 3.16 3.62 3.89 3.31 3.05 3.59 3.88 3.42 3.20 3.47 3.26 2.68 2.18 1.85 1.84 1.93 1.85